QPF
0.00 0.00 0.01 0.01 0.00 0.00 0.00 0.01 0.01 0.02 0.01 0.01 0.00 0.00 0.00 0.00 0.01 0.02 0.02 0.01 0.01 0.01 0.02 0.01 0.01 0.01 0.01 0.01 0.02 0.02 0.04 0.06 0.06 0.05 0.04 0.04 0.04 0.04 0.04 0.04 0.05 0.04 0.03 0.03
0.00 0.00 0.00 0.00 0.00 0.00 0.00 0.00 0.01 0.01 0.00 0.00 0.00 0.00 0.00 0.00 0.00 0.00 0.00 0.00 0.01 0.01 0.01 0.01 0.01 0.01 0.01 0.01 0.01 0.02 0.04 0.04 0.04 0.05 0.05 0.05 0.05 0.05 0.04 0.04 0.03 0.03 0.04 0.04
0.00 0.00 0.00 0.00 0.00 0.00 0.00 0.00 0.01 0.01 0.00 0.00 0.00 0.00 0.00 0.00 0.00 0.00 0.00 0.00 0.00 0.01 0.01 0.01 0.01 0.01 0.01 0.02 0.02 0.01 0.02 0.03 0.05 0.04 0.04 0.06 0.07 0.05 0.05 0.05 0.04 0.04 0.04 0.04
0.00 0.00 0.00 0.00 0.00 0.00 0.00 0.00 0.00 0.01 0.01 0.01 0.00 0.01 0.01 0.00 0.00 0.00 0.00 0.00 0.00 0.01 0.01 0.00 0.01 0.01 0.01 0.01 0.01 0.00 0.01 0.02 0.05 0.06 0.06 0.06 0.06 0.06 0.04 0.05 0.05 0.04 0.04 0.04
0.00 0.00 0.00 0.00 0.00 0.00 0.00 0.00 0.00 0.01 0.01 0.01 0.00 0.01 0.00 0.00 0.01 0.00 0.00 0.00 0.00 0.01 0.01 0.02 0.01 0.01 0.01 0.01 0.00 0.00 0.00 0.01 0.04 0.08 0.08 0.06 0.05 0.05 0.04 0.05 0.05 0.04 0.04 0.06
0.00 0.00 0.00 0.00 0.00 0.00 0.00 0.00 0.01 0.01 0.01 0.01 0.01 0.01 0.01 0.00 0.00 0.00 0.00 0.00 0.01 0.01 0.01 0.01 0.01 0.02 0.02 0.01 0.01 0.00 0.00 0.01 0.04 0.07 0.09 0.08 0.04 0.05 0.04 0.03 0.04 0.04 0.03 0.03
0.00 0.00 0.00 0.00 0.00 0.00 0.00 0.01 0.01 0.01 0.01 0.01 0.01 0.01 0.01 0.01 0.00 0.00 0.00 0.00 0.00 0.01 0.01 0.01 0.02 0.02 0.02 0.02 0.01 0.01 0.01 0.01 0.02 0.03 0.05 0.09 0.06 0.05 0.03 0.03 0.03 0.04 0.03 0.02
0.00 0.00 0.00 0.00 0.00 0.00 0.00 0.01 0.01 0.01 0.01 0.01 0.01 0.01 0.01 0.00 0.00 0.00 0.00 0.00 0.00 0.01 0.02 0.04 0.02 0.02 0.02 0.01 0.01 0.01 0.01 0.01 0.02 0.03 0.03 0.05 0.06 0.05 0.03 0.02 0.03 0.03 0.03 0.02
0.00 0.00 0.00 0.00 0.00 0.00 0.00 0.01 0.01 0.01 0.01 0.01 0.01 0.01 0.00 0.00 0.00 0.00 0.00 0.00 0.00 0.01 0.02 0.05 0.03 0.02 0.02 0.01 0.01 0.01 0.02 0.02 0.02 0.02 0.02 0.03 0.05 0.04 0.03 0.02 0.02 0.02 0.02 0.03
0.00 0.00 0.00 0.00 0.00 0.00 0.00 0.00 0.01 0.01 0.02 0.01 0.01 0.01 0.01 0.00 0.00 0.00 0.00 0.00 0.00 0.00 0.01 0.04 0.05 0.03 0.02 0.01 0.01 0.01 0.01 0.01 0.01 0.01 0.02 0.02 0.05 0.03 0.03 0.03 0.03 0.02 0.02 0.03
0.00 0.00 0.01 0.00 0.00 0.00 0.01 0.01 0.00 0.01 0.01 0.02 0.02 0.02 0.01 0.00 0.00 0.00 0.00 0.00 0.00 0.00 0.01 0.01 0.05 0.06 0.03 0.01 0.01 0.01 0.01 0.01 0.01 0.01 0.01 0.02 0.03 0.03 0.02 0.03 0.02 0.03 0.02 0.03
0.00 0.01 0.02 0.01 0.00 0.00 0.01 0.01 0.01 0.01 0.01 0.01 0.02 0.01 0.00 0.00 0.00 0.00 0.01 0.00 0.00 0.00 0.01 0.00 0.01 0.03 0.03 0.02 0.01 0.01 0.01 0.01 0.01 0.01 0.01 0.02 0.02 0.02 0.02 0.02 0.02 0.03 0.03 0.04
0.00 0.01 0.02 0.02 0.01 0.01 0.01 0.00 0.00 0.00 0.01 0.00 0.01 0.01 0.00 0.00 0.00 0.01 0.00 0.00 0.00 0.00 0.01 0.00 0.01 0.01 0.03 0.03 0.02 0.01 0.02 0.02 0.01 0.01 0.01 0.02 0.03 0.02 0.02 0.03 0.03 0.03 0.04 0.05
0.00 0.00 0.01 0.01 0.01 0.01 0.01 0.00 0.00 0.00 0.00 0.00 0.01 0.01 0.00 0.00 0.00 0.00 0.00 0.00 0.00 0.00 0.01 0.02 0.01 0.01 0.02 0.05 0.05 0.04 0.05 0.03 0.01 0.02 0.02 0.03 0.03 0.02 0.02 0.02 0.02 0.03 0.03 0.05
0.00 0.00 0.00 0.00 0.00 0.00 0.00 0.00 0.00 0.00 0.00 0.00 0.01 0.01 0.00 0.00 0.00 0.00 0.00 0.00 0.00 0.00 0.01 0.02 0.02 0.01 0.02 0.04 0.07 0.06 0.04 0.03 0.03 0.03 0.03 0.03 0.02 0.01 0.02 0.02 0.01 0.03 0.03 0.04
0.00 0.01 0.00 0.00 0.00 0.00 0.00 0.00 0.00 0.00 0.00 0.01 0.00 0.00 0.00 0.00 0.00 0.00 0.00 0.00 0.01 0.01 0.01 0.02 0.03 0.02 0.01 0.01 0.02 0.03 0.03 0.03 0.02 0.02 0.04 0.04 0.01 0.01 0.02 0.02 0.02 0.03 0.03 0.03
0.00 0.01 0.01 0.01 0.00 0.00 0.00 0.00 0.01 0.00 0.00 0.01 0.01 0.00 0.00 0.00 0.00 0.00 0.00 0.00 0.01 0.01 0.01 0.02 0.03 0.04 0.01 0.01 0.02 0.01 0.01 0.02 0.02 0.03 0.03 0.02 0.01 0.02 0.03 0.03 0.03 0.03 0.03 0.03
0.00 0.00 0.01 0.01 0.00 0.01 0.00 0.00 0.00 0.01 0.01 0.00 0.00 0.00 0.00 0.00 0.00 0.00 0.00 0.01 0.01 0.01 0.01 0.02 0.02 0.02 0.02 0.01 0.01 0.01 0.01 0.02 0.02 0.02 0.02 0.01 0.01 0.01 0.02 0.03 0.03 0.03 0.03 0.02
0.00 0.01 0.01 0.01 0.01 0.01 0.00 0.00 0.00 0.01 0.00 0.00 0.00 0.00 0.00 0.00 0.00 0.00 0.00 0.00 0.00 0.00 0.01 0.01 0.02 0.03 0.02 0.01 0.01 0.01 0.01 0.01 0.01 0.02 0.01 0.00 0.01 0.01 0.02 0.03 0.03 0.03 0.03 0.03
0.00 0.00 0.01 0.01 0.01 0.01 0.00 0.00 0.00 0.00 0.00 0.00 0.00 0.00 0.00 0.00 0.01 0.01 0.00 0.00 0.00 0.00 0.01 0.01 0.02 0.02 0.03 0.01 0.01 0.01 0.00 0.00 0.01 0.01 0.01 0.01 0.01 0.02 0.03 0.04 0.02 0.02 0.03 0.04
0.01 0.01 0.01 0.02 0.01 0.01 0.00 0.00 0.00 0.00 0.00 0.00 0.00 0.00 0.00 0.00 0.01 0.00 0.00 0.00 0.00 0.01 0.01 0.01 0.03 0.03 0.03 0.02 0.01 0.00 0.00 0.00 0.00 0.01 0.01 0.02 0.02 0.02 0.04 0.05 0.03 0.02 0.03 0.04
0.03 0.03 0.02 0.02 0.02 0.01 0.00 0.01 0.01 0.00 0.00 0.00 0.00 0.00 0.00 0.00 0.00 0.00 0.00 0.00 0.00 0.01 0.01 0.01 0.03 0.04 0.03 0.02 0.01 0.01 0.00 0.00 0.00 0.01 0.01 0.01 0.01 0.01 0.02 0.03 0.03 0.03 0.02 0.03
0.02 0.03 0.04 0.03 0.03 0.02 0.01 0.01 0.01 0.00 0.00 0.00 0.00 0.01 0.01 0.00 0.00 0.00 0.00 0.00 0.00 0.01 0.01 0.01 0.02 0.04 0.04 0.03 0.01 0.01 0.00 0.00 0.00 0.00 0.01 0.01 0.01 0.01 0.01 0.01 0.02 0.02 0.02 0.02
0.01 0.02 0.03 0.03 0.03 0.02 0.02 0.01 0.00 0.00 0.00 0.00 0.00 0.01 0.01 0.01 0.00 0.00 0.00 0.00 0.00 0.00 0.00 0.00 0.01 0.03 0.06 0.05 0.03 0.01 0.00 0.00 0.00 0.00 0.01 0.00 0.00 0.01 0.01 0.01 0.01 0.02 0.02 0.01
0.01 0.01 0.02 0.02 0.02 0.02 0.02 0.01 0.00 0.00 0.00 0.00 0.00 0.01 0.01 0.01 0.00 0.00 0.00 0.00 0.00 0.00 0.00 0.01 0.01 0.01 0.05 0.07 0.03 0.02 0.01 0.00 0.00 0.00 0.01 0.00 0.00 0.01 0.01 0.01 0.01 0.01 0.01 0.01
0.00 0.00 0.01 0.01 0.01 0.01 0.01 0.01 0.01 0.00 0.00 0.00 0.00 0.01 0.01 0.01 0.01 0.00 0.00 0.00 0.00 0.01 0.01 0.02 0.02 0.02 0.02 0.04 0.03 0.02 0.02 0.01 0.01 0.01 0.01 0.01 0.01 0.02 0.02 0.02 0.02 0.01 0.01 0.01
MSLP
1009.47 1010.06 1010.51 1010.86 1011.15 1011.45 1011.81 1012.28 1012.86 1013.52 1014.22 1014.89 1015.47 1015.90 1016.16 1016.25 1016.21 1016.10 1015.96 1015.85 1015.79 1015.80 1015.85 1015.93 1016.00 1016.03 1016.03 1015.99 1015.93 1015.88 1015.89 1015.97 1016.13 1016.37 1016.67 1016.97 1017.24 1017.43 1017.53 1017.51 1017.40 1017.23 1017.06 1016.93
1009.76 1010.17 1010.45 1010.64 1010.83 1011.08 1011.45 1011.98 1012.65 1013.42 1014.20 1014.92 1015.49 1015.88 1016.05 1016.05 1015.91 1015.72 1015.53 1015.42 1015.40 1015.47 1015.62 1015.79 1015.94 1016.04 1016.08 1016.06 1016.00 1015.96 1015.97 1016.07 1016.27 1016.55 1016.88 1017.22 1017.52 1017.72 1017.81 1017.77 1017.63 1017.44 1017.25 1017.12
1009.78 1010.02 1010.15 1010.23 1010.36 1010.59 1011.00 1011.61 1012.37 1013.21 1014.05 1014.78 1015.32 1015.64 1015.71 1015.59 1015.36 1015.10 1014.89 1014.80 1014.85 1015.02 1015.29 1015.59 1015.86 1016.05 1016.15 1016.17 1016.15 1016.12 1016.14 1016.25 1016.47 1016.77 1017.14 1017.51 1017.82 1018.04 1018.13 1018.09 1017.94 1017.75 1017.55 1017.42
1009.57 1009.69 1009.71 1009.74 1009.84 1010.11 1010.59 1011.27 1012.11 1013.02 1013.88 1014.59 1015.06 1015.28 1015.23 1015.00 1014.67 1014.35 1014.13 1014.09 1014.22 1014.52 1014.93 1015.38 1015.79 1016.10 1016.29 1016.37 1016.38 1016.37 1016.41 1016.52 1016.75 1017.06 1017.44 1017.82 1018.14 1018.37 1018.47 1018.44 1018.31 1018.13 1017.95 1017.82
1009.25 1009.28 1009.26 1009.28 1009.42 1009.75 1010.31 1011.08 1011.98 1012.92 1013.77 1014.42 1014.80 1014.89 1014.73 1014.37 1013.96 1013.60 1013.39 1013.40 1013.63 1014.07 1014.64 1015.24 1015.79 1016.22 1016.51 1016.67 1016.72 1016.73 1016.77 1016.89 1017.10 1017.40 1017.77 1018.14 1018.48 1018.71 1018.82 1018.82 1018.72 1018.56 1018.41 1018.31
1008.95 1008.94 1008.91 1008.96 1009.17 1009.59 1010.23 1011.07 1012.01 1012.95 1013.75 1014.32 1014.59 1014.56 1014.27 1013.82 1013.34 1012.95 1012.77 1012.85 1013.19 1013.76 1014.47 1015.22 1015.90 1016.45 1016.84 1017.06 1017.15 1017.18 1017.22 1017.32 1017.51 1017.78 1018.12 1018.48 1018.80 1019.04 1019.16 1019.18 1019.12 1019.01 1018.89 1018.83
1008.77 1008.75 1008.75 1008.86 1009.14 1009.64 1010.35 1011.23 1012.17 1013.07 1013.80 1014.27 1014.43 1014.29 1013.90 1013.38 1012.87 1012.50 1012.36 1012.52 1012.96 1013.64 1014.48 1015.34 1016.14 1016.78 1017.24 1017.52 1017.64 1017.69 1017.72 1017.79 1017.95 1018.18 1018.48 1018.80 1019.10 1019.33 1019.47 1019.52 1019.49 1019.43 1019.37 1019.34
1008.76 1008.75 1008.79 1008.96 1009.31 1009.86 1010.59 1011.46 1012.37 1013.19 1013.82 1014.19 1014.25 1014.03 1013.60 1013.07 1012.58 1012.26 1012.19 1012.43 1012.97 1013.75 1014.66 1015.61 1016.47 1017.17 1017.68 1017.99 1018.13 1018.18 1018.20 1018.25 1018.37 1018.57 1018.82 1019.10 1019.37 1019.59 1019.73 1019.81 1019.82 1019.81 1019.80 1019.82
1008.89 1008.91 1008.99 1009.20 1009.58 1010.14 1010.85 1011.66 1012.47 1013.19 1013.71 1013.99 1013.98 1013.73 1013.31 1012.83 1012.42 1012.20 1012.23 1012.57 1013.19 1014.03 1014.99 1015.96 1016.85 1017.57 1018.08 1018.40 1018.56 1018.61 1018.62 1018.66 1018.75 1018.91 1019.13 1019.37 1019.61 1019.81 1019.97 1020.06 1020.11 1020.14 1020.18 1020.26
1009.09 1009.14 1009.26 1009.49 1009.86 1010.37 1011.00 1011.69 1012.38 1012.96 1013.37 1013.57 1013.54 1013.31 1012.97 1012.61 1012.34 1012.25 1012.42 1012.86 1013.55 1014.42 1015.38 1016.34 1017.19 1017.89 1018.38 1018.69 1018.85 1018.91 1018.93 1018.96 1019.05 1019.19 1019.38 1019.61 1019.83 1020.02 1020.18 1020.29 1020.37 1020.45 1020.54 1020.66
1009.26 1009.35 1009.49 1009.72 1010.04 1010.46 1010.97 1011.50 1012.02 1012.45 1012.75 1012.89 1012.87 1012.73 1012.52 1012.34 1012.26 1012.36 1012.68 1013.22 1013.96 1014.83 1015.76 1016.65 1017.44 1018.07 1018.52 1018.81 1018.96 1019.04 1019.08 1019.14 1019.25 1019.40 1019.60 1019.82 1020.04 1020.24 1020.41 1020.54 1020.66 1020.77 1020.90 1021.06
1009.30 1009.45 1009.62 1009.83 1010.09 1010.40 1010.74 1011.10 1011.43 1011.71 1011.90 1012.01 1012.03 1012.00 1011.96 1011.99 1012.14 1012.44 1012.92 1013.56 1014.34 1015.19 1016.05 1016.85 1017.54 1018.08 1018.47 1018.73 1018.89 1018.99 1019.09 1019.20 1019.35 1019.55 1019.78 1020.03 1020.27 1020.49 1020.69 1020.85 1021.00 1021.14 1021.31 1021.50
1009.19 1009.42 1009.63 1009.83 1010.02 1010.20 1010.38 1010.55 1010.69 1010.82 1010.92 1011.00 1011.07 1011.17 1011.33 1011.58 1011.95 1012.45 1013.08 1013.81 1014.61 1015.43 1016.20 1016.89 1017.47 1017.92 1018.25 1018.49 1018.66 1018.81 1018.97 1019.16 1019.40 1019.66 1019.96 1020.26 1020.54 1020.80 1021.03 1021.23 1021.42 1021.60 1021.79 1022.01
1008.97 1009.29 1009.55 1009.75 1009.88 1009.95 1009.97 1009.96 1009.94 1009.92 1009.93 1009.99 1010.12 1010.34 1010.68 1011.13 1011.70 1012.38 1013.14 1013.94 1014.75 1015.51 1016.20 1016.78 1017.25 1017.62 1017.90 1018.13 1018.33 1018.54 1018.79 1019.08 1019.40 1019.76 1020.14 1020.50 1020.85 1021.16 1021.44 1021.69 1021.92 1022.13 1022.36 1022.59
1008.68 1009.10 1009.43 1009.64 1009.73 1009.71 1009.60 1009.44 1009.27 1009.13 1009.05 1009.09 1009.26 1009.58 1010.06 1010.68 1011.41 1012.23 1013.08 1013.93 1014.73 1015.44 1016.04 1016.53 1016.91 1017.21 1017.47 1017.70 1017.95 1018.24 1018.58 1018.97 1019.41 1019.86 1020.32 1020.77 1021.18 1021.55 1021.89 1022.19 1022.46 1022.72 1022.97 1023.22
1008.41 1008.92 1009.30 1009.53 1009.61 1009.53 1009.33 1009.05 1008.76 1008.51 1008.37 1008.37 1008.56 1008.94 1009.51 1010.24 1011.09 1011.99 1012.91 1013.77 1014.55 1015.21 1015.75 1016.17 1016.49 1016.76 1017.01 1017.27 1017.58 1017.95 1018.39 1018.88 1019.41 1019.96 1020.50 1021.02 1021.50 1021.93 1022.32 1022.68 1023.00 1023.30 1023.58 1023.85
1008.18 1008.75 1009.18 1009.44 1009.50 1009.38 1009.12 1008.77 1008.39 1008.07 1007.86 1007.84 1008.02 1008.43 1009.04 1009.83 1010.73 1011.68 1012.61 1013.48 1014.24 1014.87 1015.36 1015.74 1016.04 1016.30 1016.57 1016.88 1017.25 1017.70 1018.23 1018.81 1019.42 1020.04 1020.65 1021.22 1021.75 1022.24 1022.68 1023.08 1023.45 1023.80 1024.11 1024.40
1007.99 1008.58 1009.02 1009.28 1009.34 1009.21 1008.92 1008.52 1008.10 1007.73 1007.49 1007.43 1007.59 1007.99 1008.61 1009.41 1010.32 1011.28 1012.22 1013.08 1013.82 1014.42 1014.90 1015.27 1015.58 1015.86 1016.17 1016.54 1016.97 1017.49 1018.09 1018.73 1019.40 1020.07 1020.72 1021.33 1021.90 1022.41 1022.89 1023.34 1023.75 1024.13 1024.49 1024.80
1007.78 1008.33 1008.75 1008.99 1009.04 1008.90 1008.61 1008.21 1007.77 1007.39 1007.13 1007.05 1007.20 1007.58 1008.18 1008.97 1009.86 1010.81 1011.73 1012.58 1013.31 1013.92 1014.40 1014.80 1015.13 1015.46 1015.82 1016.24 1016.74 1017.31 1017.95 1018.63 1019.33 1020.02 1020.69 1021.31 1021.89 1022.43 1022.93 1023.40 1023.85 1024.26 1024.65 1025.00
1007.48 1007.93 1008.28 1008.48 1008.51 1008.37 1008.09 1007.71 1007.30 1006.93 1006.69 1006.62 1006.76 1007.13 1007.71 1008.47 1009.34 1010.27 1011.17 1012.01 1012.75 1013.38 1013.89 1014.33 1014.71 1015.09 1015.50 1015.97 1016.51 1017.12 1017.78 1018.48 1019.18 1019.87 1020.53 1021.15 1021.73 1022.27 1022.78 1023.26 1023.73 1024.18 1024.60 1024.98
1007.00 1007.33 1007.57 1007.71 1007.71 1007.57 1007.32 1006.98 1006.63 1006.32 1006.12 1006.08 1006.24 1006.61 1007.18 1007.92 1008.77 1009.68 1010.58 1011.43 1012.18 1012.84 1013.40 1013.88 1014.32 1014.75 1015.21 1015.71 1016.28 1016.89 1017.56 1018.25 1018.94 1019.61 1020.25 1020.85 1021.42 1021.95 1022.46 1022.95 1023.43 1023.90 1024.34 1024.76
1006.35 1006.52 1006.65 1006.71 1006.67 1006.54 1006.32 1006.05 1005.77 1005.54 1005.41 1005.43 1005.63 1006.02 1006.60 1007.34 1008.18 1009.08 1009.98 1010.85 1011.63 1012.32 1012.93 1013.46 1013.94 1014.42 1014.91 1015.43 1016.00 1016.61 1017.26 1017.93 1018.59 1019.24 1019.86 1020.44 1020.99 1021.52 1022.02 1022.51 1023.00 1023.47 1023.93 1024.37
1005.54 1005.57 1005.58 1005.56 1005.49 1005.37 1005.20 1005.00 1004.81 1004.68 1004.64 1004.73 1004.98 1005.41 1006.01 1006.76 1007.60 1008.51 1009.42 1010.30 1011.11 1011.84 1012.49 1013.06 1013.58 1014.08 1014.59 1015.11 1015.67 1016.26 1016.88 1017.52 1018.16 1018.78 1019.38 1019.95 1020.49 1021.01 1021.52 1022.01 1022.49 1022.97 1023.43 1023.88
1004.67 1004.57 1004.49 1004.40 1004.31 1004.21 1004.09 1003.97 1003.87 1003.83 1003.88 1004.05 1004.37 1004.84 1005.46 1006.22 1007.08 1007.99 1008.91 1009.80 1010.64 1011.39 1012.07 1012.67 1013.21 1013.72 1014.22 1014.73 1015.27 1015.83 1016.42 1017.03 1017.64 1018.25 1018.84 1019.41 1019.96 1020.48 1020.99 1021.48 1021.96 1022.43 1022.89 1023.35
1003.83 1003.64 1003.49 1003.37 1003.27 1003.19 1003.12 1003.08 1003.07 1003.12 1003.25 1003.49 1003.86 1004.36 1005.00 1005.77 1006.62 1007.53 1008.45 1009.35 1010.19 1010.96 1011.65 1012.27 1012.81 1013.32 1013.80 1014.29 1014.79 1015.32 1015.88 1016.46 1017.06 1017.66 1018.26 1018.84 1019.40 1019.94 1020.45 1020.95 1021.43 1021.89 1022.35 1022.79
1003.10 1002.86 1002.68 1002.54 1002.46 1002.41 1002.40 1002.42 1002.49 1002.61 1002.80 1003.09 1003.49 1004.01 1004.65 1005.40 1006.23 1007.12 1008.02 1008.91 1009.75 1010.52 1011.21 1011.82 1012.36 1012.85 1013.31 1013.77 1014.23 1014.73 1015.26 1015.82 1016.41 1017.02 1017.63 1018.23 1018.81 1019.38 1019.91 1020.41 1020.90 1021.35 1021.80 1022.22
Thickness
5768 5756 5748 5753 5758 5757 5755 5749 5745 5753 5765 5757 5749 5748 5753 5757 5754 5750 5749 5749 5749 5751 5755 5756 5755 5753 5751 5749 5747 5745 5743 5742 5740 5736 5734 5731 5728 5729 5728 5728 5727 5727 5726 5725
5755 5748 5759 5764 5762 5759 5754 5746 5745 5753 5763 5755 5748 5747 5754 5756 5753 5752 5750 5748 5748 5748 5749 5749 5749 5747 5746 5744 5743 5741 5739 5738 5736 5733 5731 5729 5726 5725 5724 5724 5723 5723 5722 5721
5748 5753 5764 5759 5754 5750 5751 5746 5744 5743 5752 5756 5747 5738 5745 5752 5755 5754 5753 5751 5749 5746 5743 5743 5743 5741 5741 5739 5738 5738 5736 5735 5733 5731 5728 5725 5722 5720 5718 5717 5718 5718 5718 5717
5751 5760 5758 5752 5749 5748 5741 5754 5751 5745 5736 5734 5742 5718 5735 5744 5744 5745 5746 5746 5745 5744 5742 5739 5738 5736 5735 5735 5736 5735 5733 5731 5729 5727 5723 5719 5715 5712 5713 5713 5714 5715 5715 5714
5747 5754 5750 5745 5749 5751 5747 5756 5751 5746 5737 5730 5739 5728 5730 5743 5735 5738 5742 5743 5743 5741 5739 5735 5734 5733 5733 5732 5731 5730 5728 5727 5725 5722 5720 5716 5713 5711 5711 5711 5711 5710 5710 5710
5752 5761 5757 5753 5758 5758 5755 5751 5750 5746 5734 5716 5736 5729 5721 5734 5736 5737 5740 5740 5739 5738 5736 5733 5732 5731 5730 5728 5726 5725 5723 5721 5720 5718 5716 5713 5709 5708 5706 5706 5705 5705 5705 5706
5741 5750 5758 5758 5746 5751 5748 5731 5717 5714 5710 5719 5745 5733 5725 5741 5745 5741 5738 5737 5737 5735 5731 5729 5727 5725 5723 5722 5720 5719 5717 5715 5715 5714 5712 5710 5708 5706 5704 5703 5702 5701 5701 5700
5728 5730 5748 5751 5743 5737 5740 5732 5708 5697 5705 5723 5739 5728 5729 5746 5747 5744 5740 5737 5734 5731 5727 5723 5722 5720 5719 5717 5716 5714 5713 5711 5711 5710 5709 5708 5706 5704 5702 5702 5700 5699 5698 5698
5725 5727 5747 5751 5751 5743 5731 5731 5737 5719 5718 5715 5726 5727 5731 5742 5738 5736 5733 5731 5728 5726 5723 5718 5717 5717 5716 5714 5712 5711 5709 5708 5707 5707 5706 5704 5703 5701 5700 5700 5699 5697 5696 5696
5733 5721 5737 5745 5745 5744 5739 5734 5725 5713 5698 5696 5713 5717 5714 5722 5725 5727 5725 5722 5722 5721 5718 5714 5712 5712 5712 5711 5710 5708 5706 5704 5704 5703 5702 5702 5700 5699 5698 5696 5695 5694 5693 5692
5733 5719 5725 5732 5726 5725 5730 5727 5723 5715 5711 5695 5691 5703 5732 5727 5726 5722 5720 5719 5717 5715 5712 5709 5706 5707 5707 5706 5705 5704 5703 5701 5700 5699 5698 5697 5696 5695 5694 5692 5691 5691 5690 5688
5729 5719 5713 5725 5738 5741 5732 5726 5719 5701 5700 5705 5695 5700 5736 5731 5727 5721 5717 5715 5713 5710 5708 5706 5703 5701 5701 5700 5700 5699 5698 5696 5695 5695 5694 5692 5691 5690 5689 5688 5687 5687 5685 5684
5718 5711 5699 5704 5715 5725 5723 5724 5721 5714 5705 5698 5689 5695 5728 5725 5719 5716 5711 5708 5707 5704 5702 5701 5698 5696 5695 5695 5695 5695 5694 5693 5692 5691 5689 5688 5686 5685 5684 5684 5683 5682 5681 5679
5713 5706 5699 5690 5700 5712 5711 5714 5715 5706 5692 5691 5696 5699 5710 5711 5707 5706 5704 5703 5700 5698 5695 5692 5690 5691 5691 5691 5691 5691 5690 5689 5688 5686 5684 5683 5682 5682 5681 5680 5678 5677 5675 5674
5710 5700 5706 5710 5714 5713 5709 5709 5709 5704 5701 5691 5696 5699 5704 5706 5703 5702 5699 5696 5693 5691 5689 5686 5684 5684 5685 5686 5686 5685 5685 5686 5685 5683 5680 5679 5678 5678 5676 5674 5673 5672 5670 5670
5705 5697 5699 5700 5709 5709 5704 5707 5706 5703 5702 5699 5697 5696 5707 5706 5701 5696 5692 5688 5685 5683 5683 5681 5680 5679 5680 5681 5680 5680 5680 5681 5681 5679 5676 5675 5674 5672 5670 5669 5667 5666 5665 5664
5694 5690 5684 5684 5699 5697 5690 5704 5704 5702 5702 5696 5687 5690 5698 5694 5690 5686 5684 5681 5678 5677 5676 5675 5675 5673 5675 5676 5677 5675 5675 5675 5675 5674 5672 5670 5668 5666 5665 5663 5661 5659 5658 5658
5685 5683 5679 5678 5681 5667 5692 5710 5707 5699 5698 5698 5694 5692 5690 5686 5685 5683 5681 5676 5673 5672 5671 5670 5670 5669 5670 5672 5672 5672 5672 5671 5669 5668 5667 5665 5663 5661 5659 5657 5655 5653 5652 5651
5688 5677 5670 5668 5665 5673 5689 5699 5698 5688 5685 5693 5688 5686 5684 5683 5678 5675 5676 5673 5669 5668 5667 5666 5666 5666 5666 5666 5667 5667 5666 5665 5663 5662 5661 5660 5658 5655 5653 5651 5650 5648 5647 5645
5681 5677 5665 5663 5655 5655 5673 5691 5697 5685 5671 5684 5683 5677 5675 5672 5658 5659 5668 5667 5664 5663 5662 5661 5661 5660 5659 5660 5661 5660 5659 5659 5657 5657 5657 5655 5654 5650 5648 5646 5645 5644 5642 5640
5662 5661 5656 5653 5650 5660 5675 5683 5684 5659 5659 5675 5675 5671 5667 5661 5657 5659 5662 5660 5659 5657 5657 5656 5655 5653 5653 5654 5654 5653 5653 5653 5653 5653 5652 5650 5649 5646 5644 5642 5640 5638 5636 5634
5657 5653 5652 5651 5644 5648 5667 5669 5661 5658 5668 5669 5667 5665 5661 5658 5657 5656 5654 5653 5652 5650 5649 5649 5646 5645 5646 5648 5647 5646 5646 5648 5648 5647 5645 5644 5643 5642 5640 5636 5634 5632 5630 5628
5658 5656 5653 5651 5648 5658 5664 5661 5661 5662 5659 5660 5658 5657 5654 5651 5649 5648 5647 5646 5645 5643 5642 5641 5639 5637 5638 5640 5641 5640 5641 5642 5642 5640 5639 5638 5637 5636 5634 5631 5628 5625 5624 5621
5655 5659 5651 5648 5651 5654 5656 5657 5656 5655 5652 5652 5652 5649 5647 5643 5642 5640 5639 5638 5637 5636 5635 5633 5631 5630 5630 5632 5634 5635 5636 5636 5635 5633 5633 5632 5631 5629 5627 5625 5623 5620 5618 5615
5645 5645 5641 5640 5644 5645 5646 5647 5647 5647 5646 5645 5643 5641 5639 5636 5635 5633 5632 5631 5629 5628 5627 5626 5625 5624 5624 5625 5627 5629 5630 5629 5627 5626 5626 5625 5624 5622 5620 5618 5616 5615 5614 5612
5640 5637 5632 5633 5639 5635 5636 5640 5641 5637 5636 5636 5634 5632 5631 5629 5627 5626 5624 5623 5622 5620 5620 5619 5618 5618 5618 5619 5620 5622 5623 5622 5621 5619 5619 5617 5616 5614 5613 5610 5608 5608 5607 5606